IRS B3

导读

IRS-B3是印度空间研究组织(ISRO)研制的IRS系列遥感卫星,于1996年3月21日发射升空,属于印度地球资源卫星家族,该系列卫星主要承担国土资源监测与管理任务。卫星运行于近地太阳同步轨道,搭载遥感载荷可获取地面观测数据,服务于农业、林业、地质勘探等领域应用,是印度90年代遥感卫星体系的重要组成,延续了IRS系列对地观测任务能力。

基本信息
目录编号:
23827
目录名称:
IRS B3
国际标识:
1996-017A
轨道中心:
EARTH
卫星名称:
IRS B3
卫星全名:
--
卫星状态:
在轨 (已飞行11072 天)
发射日期:
1996-03-21 UTC
国别 :
印度 (IN)
星等 :
--
轨道信息
数据来源 国际轨道数据 AOE轨道数据
星历时间 2026-07-13T23:51:24+0800
16小时前
查看轨道信息
2026-07-13T07:00:00+0800
1天前
查看轨道信息
半长轴 7190.862km 7190.863km
偏心率 0.0002706 0.0002654
轨道倾角 99.028° 99.027°
近地点辐角 206.294° 215.743°
升交点赤经 218.852° 218.131°
平近点角 153.810° 146.462°
近地点 810.779km 810.817km
远地点 814.671km 814.635km
周期 101.142分钟 101.142分钟
每日圈数 14.237422 14.237421
详细信息
使用方式:
暂无
2D轨道图
3D轨道图
轨道高度分析图
轨道倾角分析图
轨道综合分析图
查看轨道综合分析图